EW2310 Weather Reports


Display with metric or nautical units.
time (UTC)temp
F
wind
direction
speed
MPH
gust
MPH
rain 1hr
in
rain 24hr
in
rain mn
in
humidity
%
barometer
mb
20260502224043 57 264 0.0 0.0 0.00 0.00 0.00 73 1020.8
20260502223543 57 263 0.0 0.0 0.00 0.00 0.00 73 1020.8
20260502223042 57 263 0.0 0.0 0.00 0.00 0.00 73 1020.8
20260502222542 57 264 0.0 0.0 0.00 0.00 0.00 73 1020.8
20260502222043 57 264 0.0 0.0 0.00 0.00 0.00 73 1020.8
20260502221543 57 263 0.0 1.0 0.00 0.00 0.00 73 1020.9
20260502221042 57 263 0.0 0.0 0.00 0.00 0.00 73 1020.9
20260502220542 57 263 0.0 2.0 0.00 0.00 0.00 73 1020.8
20260502220042 57 264 1.0 1.0 0.00 0.00 0.00 73 1020.9
20260502215542 57 264 0.0 0.0 0.00 0.00 0.00 73 1020.9
20260502215042 57 264 0.0 0.0 0.00 0.00 0.00 73 1020.9
20260502214543 57 264 0.0 3.0 0.00 0.00 0.00 73 1020.9
20260502214045 57 264 3.0 4.0 0.00 0.00 0.00 73 1020.8
20260502213546 57 265 1.0 3.0 0.00 0.00 0.00 73 1020.8
20260502213046 57 265 0.0 1.0 0.00 0.00 0.00 73 1020.9
20260502212543 57 265 0.0 0.0 0.00 0.00 0.00 73 1020.9
20260502212042 57 265 0.0 0.0 0.00 0.00 0.00 72 1020.9
20260502211543 57 265 0.0 2.0 0.00 0.00 0.00 72 1020.9
20260502211046 58 265 1.0 2.0 0.00 0.00 0.00 72 1021.0
20260502210542 58 265 1.0 2.0 0.00 0.00 0.00 72 1020.9
20260502210042 58 265 0.0 1.0 0.00 0.00 0.00 72 1020.9
20260502205542 58 265 0.0 3.0 0.00 0.00 0.00 71 1020.9
20260502205045 58 265 2.0 2.0 0.00 0.00 0.00 71 1020.9
20260502204543 58 265 0.0 2.0 0.00 0.00 0.00 70 1020.9
20260502204042 59 265 2.0 3.0 0.00 0.00 0.00 70 1020.9
20260502203543 59 265 0.0 1.0 0.00 0.00 0.00 70 1020.9
20260502203043 59 265 0.0 2.0 0.00 0.00 0.00 69 1020.9
20260502202542 59 265 2.0 2.0 0.00 0.00 0.00 69 1021.0
20260502202042 60 265 2.0 3.0 0.00 0.00 0.00 68 1021.0
20260502201542 60 265 0.0 0.0 0.00 0.00 0.00 68 1021.0
20260502201045 60 265 0.0 0.0 0.00 0.00 0.00 68 1021.0
20260502200542 60 265 0.0 0.0 0.00 0.00 0.00 68 1021.0
20260502200042 60 265 0.0 0.0 0.00 0.00 0.00 68 1021.0
20260502195545 60 265 0.0 0.0 0.00 0.00 0.00 68 1020.9
20260502195043 60 265 0.0 2.0 0.00 0.00 0.00 68 1020.9
20260502194545 60 265 0.0 2.0 0.00 0.00 0.00 67 1020.9
20260502194042 61 265 2.0 2.0 0.00 0.00 0.00 66 1020.8
20260502193546 61 265 0.0 1.0 0.00 0.00 0.00 66 1020.7
20260502193042 61 265 0.0 2.0 0.00 0.00 0.00 66 1020.7
20260502192543 61 265 1.0 1.0 0.00 0.00 0.00 66 1020.7
20260502192042 61 265 0.0 1.0 0.00 0.00 0.00 66 1020.7
20260502191546 61 265 1.0 3.0 0.00 0.00 0.00 66 1020.6
20260502191045 61 265 1.0 3.0 0.00 0.00 0.00 66 1020.6
20260502190542 61 265 0.0 3.0 0.00 0.00 0.00 66 1020.5
20260502190042 61 265 1.0 1.0 0.00 0.00 0.00 66 1020.5
20260502185543 61 265 1.0 3.0 0.00 0.00 0.00 65 1020.4
20260502185043 61 265 0.0 3.0 0.00 0.00 0.00 65 1020.4
20260502184542 62 258 1.0 2.0 0.00 0.00 0.00 65 1020.3
20260502184042 62 258 0.0 2.0 0.00 0.00 0.00 65 1020.3
20260502183542 62 258 1.0 2.0 0.00 0.00 0.00 65 1020.2
20260502183043 62 257 0.0 3.0 0.00 0.00 0.00 64 1020.1
20260502182543 62 242 0.0 3.0 0.00 0.00 0.00 64 1020.1
20260502182043 62 224 1.0 4.0 0.00 0.00 0.00 64 1020.1
20260502181545 62 229 1.0 3.0 0.00 0.00 0.00 64 1020.1
20260502181043 62 228 0.0 4.0 0.00 0.00 0.00 64 1019.9
20260502180542 62 237 2.0 4.0 0.00 0.00 0.00 63 1019.9
20260502164042 65 0 1.0 9.0 0.00 0.00 0.00 55 1019.5
20260502163542 65 9 1.0 7.0 0.00 0.00 0.00 55 1019.4
20260502163043 66 355 1.0 9.0 0.00 0.00 0.00 54 1019.5
20260502162542 66 290 4.0 5.0 0.00 0.00 0.00 56 1019.5
20260502162042 65 192 2.0 6.0 0.00 0.00 0.00 56 1019.5
20260502161543 66 242 2.0 9.0 0.00 0.00 0.00 57 1019.5
20260502161042 66 47 1.0 8.0 0.00 0.00 0.00 56 1019.4
20260502160543 66 192 2.0 8.0 0.00 0.00 0.00 54 1019.4
20260502152042 68 5 4.0 10.0 0.00 0.00 0.00 45 1019.5
20260502151542 68 49 3.0 10.0 0.00 0.00 0.00 45 1019.5
20260502151042 68 34 3.0 11.0 0.00 0.00 0.00 43 1019.5
20260502150543 68 169 2.0 8.0 0.00 0.00 0.00 44 1019.5
20260502130543 68 28 4.0 11.0 0.00 0.00 0.00 39 1020.5
20260502123542 68 164 6.0 10.0 0.00 0.00 0.00 39 1020.4
20260502123042 69 36 3.0 7.0 0.00 0.00 0.00 38 1020.5
20260502122546 69 228 2.0 8.0 0.00 0.00 0.00 38 1020.5
20260502122042 69 355 3.0 8.0 0.00 0.00 0.00 38 1020.5
20260502121542 68 53 2.0 7.0 0.00 0.00 0.00 40 1020.5
20260502121042 68 101 4.0 11.0 0.00 0.00 0.00 42 1020.6
20260502120546 68 93 3.0 7.0 0.00 0.00 0.00 41 1020.7
20260502115542 68 220 3.0 11.0 0.00 0.00 0.00 41 1020.7
20260502115045 68 141 4.0 11.0 0.00 0.00 0.00 40 1020.7
20260502114545 68 294 3.0 9.0 0.00 0.00 0.00 41 1020.7
20260502114042 67 0 4.0 15.0 0.00 0.00 0.00 42 1020.8
20260502113542 68 47 3.0 8.0 0.00 0.00 0.00 42 1020.8
20260502113042 68 247 3.0 9.0 0.00 0.00 0.00 43 1020.8
20260502112542 68 184 2.0 10.0 0.00 0.00 0.00 43 1020.8
20260502112042 68 67 4.0 10.0 0.00 0.00 0.00 42 1020.9
20260502111542 68 123 5.0 6.0 0.00 0.00 0.00 40 1020.9
20260502111042 67 355 1.0 9.0 0.00 0.00 0.00 41 1021.0
20260502110542 67 221 2.0 7.0 0.00 0.00 0.00 43 1021.0
20260502110042 67 268 6.0 9.0 0.00 0.00 0.00 44 1021.1
20260502105542 68 180 3.0 12.0 0.00 0.00 0.00 42 1021.1
20260502105042 68 246 2.0 15.0 0.00 0.00 0.00 39 1021.1
20260502104545 68 217 3.0 14.0 0.00 0.00 0.00 38 1021.1
20260502104042 68 249 1.0 11.0 0.00 0.00 0.00 38 1021.2
20260502103542 68 210 4.0 11.0 0.00 0.00 0.00 38 1021.3
20260502103042 68 213 6.0 11.0 0.00 0.00 0.00 37 1021.4
20260502102545 69 225 4.0 11.0 0.00 0.00 0.00 37 1021.4
20260502102042 70 185 1.0 10.0 0.00 0.00 0.00 37 1021.4
20260502101542 70 226 4.0 7.0 0.00 0.00 0.00 36 1021.5
20260502101042 69 0 1.0 4.0 0.00 0.00 0.00 33 1021.4
20260502100542 69 109 1.0 3.0 0.00 0.00 0.00 29 1021.5
20260502091042 65 0 1.0 5.0 0.00 0.00 0.00 33 1021.7
20260502090542 65 61 1.0 4.0 0.00 0.00 0.00 31 1021.8
20260502071045 58 355 3.0 9.0 0.00 0.00 0.00 43 1022.1
20260502070542 58 302 5.0 10.0 0.00 0.00 0.00 44 1022.0
20260502070042 57 317 9.0 11.0 0.00 0.00 0.00 45 1022.0
20260502065542 57 350 6.0 10.0 0.00 0.00 0.00 45 1022.0
20260502065042 56 331 6.0 11.0 0.00 0.00 0.00 46 1022.0
20260502064542 56 342 9.0 12.0 0.00 0.00 0.00 46 1022.0
20260502064042 55 324 10.0 12.0 0.00 0.00 0.00 46 1021.9
20260502063542 55 9 10.0 13.0 0.00 0.00 0.00 47 1021.9
20260502063042 55 0 6.0 11.0 0.00 0.00 0.00 47 1022.0
20260502062545 54 9 4.0 10.0 0.00 0.00 0.00 48 1021.9
20260502062042 54 27 4.0 10.0 0.00 0.00 0.00 48 1021.9
20260502061542 54 333 8.0 9.0 0.00 0.00 0.00 49 1022.0
20260502061045 53 302 2.0 10.0 0.00 0.00 0.00 49 1022.0
20260502060542 53 329 3.0 11.0 0.00 0.00 0.00 49 1022.0
20260502060042 52 312 5.0 11.0 0.00 0.00 0.00 49 1022.0
20260502055542 52 5 4.0 10.0 0.00 0.00 0.00 49 1022.0
20260502055045 52 5 5.0 10.0 0.00 0.00 0.00 49 1022.0
20260502054542 52 339 4.0 10.0 0.00 0.00 0.00 49 1022.0
20260502054045 52 0 9.0 10.0 0.00 0.00 0.00 48 1022.0
20260502053542 52 349 3.0 12.0 0.00 0.00 0.00 47 1022.0
20260502053042 52 336 8.0 11.0 0.00 0.00 0.00 46 1022.0
20260502052542 52 346 5.0 10.0 0.00 0.00 0.00 46 1022.0
20260502052042 52 347 8.0 14.0 0.00 0.00 0.00 47 1022.0
20260502051542 51 325 11.0 14.0 0.00 0.00 0.00 47 1022.0
20260502051045 51 5 8.0 11.0 0.00 0.00 0.00 47 1022.0
20260502050542 50 346 5.0 12.0 0.00 0.00 0.00 48 1021.9
20260502050042 50 338 8.0 11.0 0.00 0.00 0.00 49 1021.9
20260502045545 49 324 6.0 11.0 0.00 0.00 0.00 50 1021.9
20260502045042 49 331 9.0 11.0 0.00 0.00 0.00 50 1021.9
20260502044542 49 348 6.0 13.0 0.00 0.00 0.00 49 1021.8
20260502044042 49 329 6.0 12.0 0.00 0.00 0.00 49 1021.8
20260502043542 50 321 6.0 12.0 0.00 0.00 0.00 48 1021.8
20260502043042 50 327 10.0 13.0 0.00 0.00 0.00 48 1021.8
20260502042542 50 315 6.0 12.0 0.00 0.00 0.00 47 1021.7
20260502042042 50 323 5.0 12.0 0.00 0.00 0.00 46 1021.7
20260502041542 50 345 8.0 11.0 0.00 0.00 0.00 46 1021.7
20260502041042 50 344 8.0 12.0 0.00 0.00 0.00 46 1021.7
20260502040542 50 324 9.0 11.0 0.00 0.00 0.00 46 1021.7
20260502040042 50 332 6.0 12.0 0.00 0.00 0.00 46 1021.7
20260502035542 50 331 9.0 12.0 0.00 0.00 0.00 46 1021.7
20260502035045 51 322 4.0 10.0 0.00 0.00 0.00 46 1021.7
20260502034542 51 344 5.0 11.0 0.00 0.00 0.00 45 1021.7
20260502034042 51 317 8.0 10.0 0.00 0.00 0.00 45 1021.6
20260502033542 51 335 8.0 10.0 0.00 0.00 0.00 45 1021.6
20260502033042 51 331 6.0 11.0 0.00 0.00 0.00 44 1021.7
20260502032542 51 0 2.0 10.0 0.00 0.00 0.00 44 1021.6
20260502032042 52 325 6.0 10.0 0.00 0.00 0.00 43 1021.6
20260502031542 52 320 9.0 11.0 0.00 0.00 0.00 42 1021.7
20260502031045 53 350 6.0 10.0 0.00 0.00 0.00 41 1021.7
20260502030542 52 9 3.0 11.0 0.00 0.00 0.00 42 1021.6
20260502030042 51 322 5.0 12.0 0.00 0.00 0.00 44 1021.7
20260502025542 52 347 6.0 10.0 0.00 0.00 0.00 45 1021.7
20260502025042 51 327 5.0 9.0 0.00 0.00 0.00 45 1021.6
20260502024545 51 330 2.0 8.0 0.00 0.00 0.00 46 1021.7
20260502024045 51 310 5.0 9.0 0.00 0.00 0.00 46 1021.8
20260502023542 51 343 3.0 10.0 0.00 0.00 0.00 46 1021.8
20260502023045 51 323 4.0 8.0 0.00 0.00 0.00 46 1021.8
20260502022542 51 309 3.0 10.0 0.00 0.00 0.00 46 1021.9
20260502022042 52 320 3.0 8.0 0.00 0.00 0.00 45 1021.8
20260502021542 52 324 6.0 10.0 0.00 0.00 0.00 44 1021.8
20260502021043 52 308 2.0 9.0 0.00 0.00 0.00 44 1021.9
20260502020542 53 304 4.0 8.0 0.00 0.00 0.00 42 1021.9
20260502020042 53 328 8.0 8.0 0.00 0.00 0.00 42 1021.8
20260502015545 53 319 5.0 8.0 0.00 0.00 0.00 42 1021.8
20260502015042 53 320 3.0 10.0 0.00 0.00 0.00 42 1021.8
20260502014542 52 321 6.0 9.0 0.00 0.00 0.00 42 1021.8
20260502014042 52 335 9.0 9.0 0.00 0.00 0.00 43 1021.7
20260502013542 52 325 4.0 10.0 0.00 0.00 0.00 43 1021.7
20260502013042 52 342 8.0 11.0 0.00 0.00 0.00 42 1021.7
20260502012542 53 329 9.0 10.0 0.00 0.00 0.00 42 1021.7
20260502012042 53 347 5.0 9.0 0.00 0.00 0.00 41 1021.7
20260502011545 53 325 6.0 9.0 0.00 0.00 0.00 42 1021.8
20260502011042 52 319 6.0 9.0 0.00 0.00 0.00 42 1021.8
20260502010542 53 316 1.0 4.0 0.00 0.00 0.00 43 1021.9
20260502010042 53 319 1.0 4.0 0.00 0.00 0.00 40 1021.8
20260502005542 54 319 1.0 4.0 0.00 0.00 0.00 39 1021.8
20260502005045 54 319 0.0 3.0 0.00 0.00 0.00 39 1021.8
20260502004542 55 319 1.0 6.0 0.00 0.00 0.00 36 1021.7
20260502004045 55 320 1.0 6.0 0.00 0.00 0.00 36 1021.7
20260502003542 55 333 4.0 6.0 0.00 0.00 0.00 37 1021.7
20260502003042 55 333 4.0 6.0 0.00 0.00 0.00 38 1021.7
20260502002542 55 347 2.0 4.0 0.00 0.00 0.00 40 1021.7
20260502002042 55 348 1.0 3.0 0.00 0.00 0.00 41 1021.7
20260502001542 56 348 1.0 2.0 0.00 0.00 0.00 40 1021.8
20260502001042 57 348 0.0 4.0 0.00 0.00 0.00 39 1021.8
20260502000542 57 36 2.0 3.0 0.00 0.00 0.00 39 1021.9
20260502000042 58 36 2.0 4.0 0.00 0.00 0.00 40 1021.9
20260501235542 58 36 3.0 4.0 0.00 0.00 0.00 40 1021.9
20260501235045 58 36 2.0 3.0 0.00 0.00 0.00 40 1021.9
20260501234542 57 36 2.0 2.0 0.00 0.00 0.00 41 1021.8
20260501234042 57 36 1.0 2.0 0.00 0.00 0.00 40 1021.9
20260501233542 57 36 0.0 1.0 0.00 0.00 0.00 40 1021.9
20260501233045 57 36 1.0 2.0 0.00 0.00 0.00 39 1021.9
20260501232542 57 36 1.0 3.0 0.00 0.00 0.00 38 1022.0
20260501232042 57 36 0.0 2.0 0.00 0.00 0.00 38 1022.0
20260501231542 57 36 1.0 3.0 0.00 0.00 0.00 36 1022.0
20260501231042 57 36 1.0 3.0 0.00 0.00 0.00 35 1022.0
20260501230542 57 36 1.0 4.0 0.00 0.00 0.00 34 1022.0
20260501230042 58 36 3.0 5.0 0.00 0.00 0.00 33 1022.1
20260501225542 58 36 4.0 5.0 0.00 0.00 0.00 33 1022.0
20260501225045 58 36 4.0 6.0 0.00 0.00 0.00 33 1022.1
20260501224542 58 94 4.0 6.0 0.00 0.00 0.00 33 1022.1